When you browse on this site, cookies collect data to enhance your experience and personalize the content and advertising you see.
Visit our Privacy Policy to learn more. By continuing to use the site, you agree to this use of cookies and data.
  • In Hungary
  • List of Countries
  • For 7 days
  • Water Temperature
  • Weather Map
  • News
  • Weather Widgets
  • user-avatar
    Login

    Hourly Weather Zatec

    Today, 23 August, Friday

    Time Temperature Precipitation Wind Pressure Humidity
    00:00 +15°C° 0 mm 0 mps 748 mmHg 86%
    01:00 +14°C° 0 mm 0 mps 748 mmHg 88%
    02:00 +14°C° 0 mm 0 mps 748 mmHg 89%
    03:00 +14°C° 0 mm 0 mps 748 mmHg 90%
    04:00 +14°C° 0 mm 0 mps 748 mmHg 91%
    05:00 +15°C° 0 mm 0 mps 748 mmHg 88%
    06:00 +15°C° 0 mm 0 mps 748 mmHg 85%
    07:00 +16°C° 0 mm 0 mps 748 mmHg 82%
    08:00 +20°C° 0 mm 1 mps 748 mmHg 75%
    09:00 +22°C° 0 mm 1 mps 748 mmHg 68%
    10:00 +23°C° 0 mm 2 mps 749 mmHg 61%
    11:00 +24°C° 0 mm 2 mps 748 mmHg 57%
    12:00 +25°C° 0 mm 2 mps 748 mmHg 53%
    13:00 +26°C° 0 mm 2 mps 747 mmHg 49%
    14:00 +26°C° 0 mm 2 mps 747 mmHg 49%
    15:00 +26°C° 0 mm 2 mps 747 mmHg 49%
    16:00 +27°C° 0 mm 2 mps 747 mmHg 48%
    17:00 +25°C° 0 mm 2 mps 746 mmHg 56%
    18:00 +23°C° 0 mm 2 mps 746 mmHg 63%
    19:00 +22°C° 0 mm 1 mps 746 mmHg 71%
    20:00 +21°C° 0 mm 1 mps 746 mmHg 76%
    21:00 +20°C° 0 mm 1 mps 746 mmHg 81%
    22:00 +19°C° 0 mm 1 mps 746 mmHg 87%
    23:00 +19°C° 0 mm 1 mps 746 mmHg 88%

    Tomorrow, 24 August, Saturday

    Time Temperature Precipitation Wind Pressure Humidity
    00:00 +18°C° 0 mm 1 mps 746 mmHg 90%
    01:00 +18°C° 0 mm 1 mps 746 mmHg 92%
    02:00 +18°C° 0 mm 1 mps 745 mmHg 92%
    03:00 +18°C° 0 mm 1 mps 745 mmHg 92%
    04:00 +18°C° 0 mm 1 mps 745 mmHg 92%
    05:00 +19°C° 0 mm 1 mps 745 mmHg 89%
    06:00 +19°C° 0 mm 1 mps 745 mmHg 86%
    07:00 +20°C° 0 mm 1 mps 745 mmHg 82%
    08:00 +21°C° 0 mm 2 mps 745 mmHg 77%
    09:00 +23°C° 0 mm 2 mps 745 mmHg 71%
    10:00 +25°C° 0 mm 3 mps 745 mmHg 65%
    11:00 +26°C° 0 mm 3 mps 744 mmHg 64%
    12:00 +27°C° 0 mm 3 mps 744 mmHg 62%
    13:00 +28°C° 0 mm 3 mps 744 mmHg 60%
    14:00 +28°C° 0.1 mm 3 mps 743 mmHg 61%
    15:00 +28°C° 0.1 mm 3 mps 743 mmHg 62%
    16:00 +28°C° 0.1 mm 3 mps 743 mmHg 63%
    17:00 +27°C° 0.3 mm 3 mps 743 mmHg 69%
    18:00 +26°C° 0.3 mm 3 mps 742 mmHg 76%
    19:00 +24°C° 0.3 mm 3 mps 742 mmHg 82%
    20:00 +24°C° 0.1 mm 2 mps 742 mmHg 84%
    21:00 +23°C° 0.1 mm 2 mps 742 mmHg 87%
    22:00 +21°C° 0.1 mm 2 mps 742 mmHg 89%
    23:00 +21°C° 0.2 mm 2 mps 742 mmHg 90%

    Day after tomorrow, 25 August, Sunday

    Time Temperature Precipitation Wind Pressure Humidity
    00:00 +20°C° 0.2 mm 2 mps 742 mmHg 92%
    01:00 +20°C° 0.2 mm 2 mps 742 mmHg 93%
    02:00 +20°C° 0 mm 2 mps 742 mmHg 94%
    03:00 +20°C° 0 mm 1 mps 741 mmHg 95%
    04:00 +20°C° 0 mm 1 mps 741 mmHg 95%
    05:00 +20°C° 0 mm 1 mps 741 mmHg 94%
    06:00 +21°C° 0 mm 1 mps 741 mmHg 92%
    07:00 +21°C° 0 mm 1 mps 741 mmHg 90%
    08:00 +23°C° 0 mm 1 mps 742 mmHg 84%
    09:00 +25°C° 0 mm 1 mps 742 mmHg 77%
    10:00 +26°C° 0 mm 2 mps 742 mmHg 71%
    11:00 +28°C° 0 mm 2 mps 742 mmHg 65%
    12:00 +29°C° 0 mm 2 mps 742 mmHg 60%
    13:00 +30°C° 0 mm 2 mps 742 mmHg 54%
    14:00 +30°C° 0.1 mm 2 mps 742 mmHg 54%
    15:00 +31°C° 0.1 mm 2 mps 741 mmHg 53%
    16:00 +31°C° 0.1 mm 2 mps 741 mmHg 52%
    17:00 +29°C° 0.3 mm 1 mps 741 mmHg 57%
    18:00 +28°C° 0.3 mm 1 mps 741 mmHg 63%
    19:00 +24°C° 0.3 mm 0 mps 741 mmHg 68%
    20:00 +25°C° 0.4 mm 1 mps 741 mmHg 71%
    21:00 +25°C° 0.4 mm 1 mps 742 mmHg 74%
    22:00 +24°C° 0.4 mm 1 mps 742 mmHg 77%
    23:00 +23°C° 0 mm 1 mps 742 mmHg 80%

    26 August, Monday

    Time Temperature Precipitation Wind Pressure Humidity
    00:00 +23°C° 0 mm 1 mps 742 mmHg 82%
    01:00 +22°C° 0 mm 1 mps 742 mmHg 85%
    02:00 +22°C° 0 mm 1 mps 742 mmHg 86%
    03:00 +21°C° 0 mm 1 mps 742 mmHg 88%
    04:00 +21°C° 0 mm 1 mps 742 mmHg 89%
    05:00 +21°C° 0 mm 1 mps 742 mmHg 87%
    06:00 +22°C° 0 mm 1 mps 742 mmHg 85%
    07:00 +22°C° 0 mm 1 mps 742 mmHg 82%
    08:00 +24°C° 0 mm 1 mps 742 mmHg 76%
    09:00 +26°C° 0 mm 1 mps 742 mmHg 69%
    10:00 +27°C° 0 mm 2 mps 742 mmHg 62%
    11:00 +28°C° 0 mm 2 mps 742 mmHg 58%
    12:00 +30°C° 0 mm 2 mps 742 mmHg 54%
    13:00 +31°C° 0 mm 2 mps 742 mmHg 50%
    14:00 +31°C° 0 mm 2 mps 742 mmHg 48%
    15:00 +32°C° 0 mm 2 mps 742 mmHg 47%
    16:00 +32°C° 0 mm 2 mps 741 mmHg 46%
    17:00 +30°C° 0 mm 2 mps 741 mmHg 52%
    18:00 +28°C° 0 mm 2 mps 741 mmHg 57%
    19:00 +27°C° 0 mm 1 mps 741 mmHg 63%
    20:00 +26°C° 0.4 mm 1 mps 741 mmHg 67%
    21:00 +25°C° 0.4 mm 1 mps 741 mmHg 70%
    22:00 +24°C° 0.4 mm 1 mps 741 mmHg 74%
    23:00 +24°C° 0 mm 1 mps 741 mmHg 76%

    27 August, Tuesday

    Time Temperature Precipitation Wind Pressure Humidity
    00:00 +23°C° 0 mm 1 mps 741 mmHg 78%
    01:00 +22°C° 0 mm 1 mps 741 mmHg 80%
    02:00 +22°C° 0 mm 1 mps 741 mmHg 82%
    03:00 +21°C° 0 mm 1 mps 741 mmHg 84%
    04:00 +21°C° 0 mm 1 mps 741 mmHg 86%
    05:00 +21°C° 0 mm 1 mps 741 mmHg 84%
    06:00 +22°C° 0 mm 1 mps 741 mmHg 81%
    07:00 +23°C° 0 mm 1 mps 741 mmHg 79%
    08:00 +24°C° 0 mm 1 mps 741 mmHg 72%
    09:00 +26°C° 0 mm 1 mps 741 mmHg 65%
    10:00 +28°C° 0 mm 2 mps 741 mmHg 59%
    11:00 +29°C° 0 mm 2 mps 741 mmHg 55%
    12:00 +30°C° 0 mm 2 mps 741 mmHg 51%
    13:00 +32°C° 0 mm 2 mps 741 mmHg 47%
    14:00 +32°C° 0 mm 2 mps 740 mmHg 46%
    15:00 +32°C° 0 mm 2 mps 740 mmHg 46%
    16:00 +33°C° 0 mm 3 mps 740 mmHg 45%
    17:00 +30°C° 0 mm 2 mps 740 mmHg 51%
    18:00 +29°C° 0 mm 1 mps 740 mmHg 57%
    19:00 +27°C° 0 mm 1 mps 739 mmHg 64%
    20:00 +26°C° 0 mm 1 mps 740 mmHg 66%
    21:00 +25°C° 0 mm 1 mps 740 mmHg 67%
    22:00 +25°C° 0 mm 1 mps 740 mmHg 69%
    23:00 +24°C° 0.1 mm 1 mps 740 mmHg 71%

    28 August, Wednesday

    Time Temperature Precipitation Wind Pressure Humidity
    00:00 +24°C° 0.1 mm 1 mps 740 mmHg 72%
    01:00 +21°C° 0.1 mm 0 mps 740 mmHg 74%
    02:00 +23°C° 0 mm 1 mps 740 mmHg 76%
    03:00 +22°C° 0 mm 1 mps 740 mmHg 78%
    04:00 +22°C° 0 mm 1 mps 740 mmHg 80%
    05:00 +22°C° 0 mm 1 mps 740 mmHg 79%
    06:00 +23°C° 0 mm 1 mps 740 mmHg 78%
    07:00 +24°C° 0 mm 1 mps 741 mmHg 77%
    08:00 +25°C° 0 mm 2 mps 741 mmHg 71%
    09:00 +26°C° 0 mm 2 mps 742 mmHg 65%
    10:00 +28°C° 0 mm 3 mps 742 mmHg 60%
    11:00 +28°C° 0 mm 3 mps 742 mmHg 54%
    12:00 +29°C° 0 mm 3 mps 742 mmHg 49%
    13:00 +29°C° 0 mm 4 mps 742 mmHg 44%
    14:00 +29°C° 0 mm 4 mps 742 mmHg 43%
    15:00 +29°C° 0 mm 3 mps 742 mmHg 42%
    16:00 +28°C° 0 mm 3 mps 742 mmHg 41%
    17:00 +26°C° 0 mm 3 mps 742 mmHg 49%
    18:00 +25°C° 0 mm 2 mps 742 mmHg 56%
    19:00 +23°C° 0 mm 2 mps 743 mmHg 63%
    20:00 +21°C° 0 mm 2 mps 743 mmHg 66%
    21:00 +21°C° 0 mm 1 mps 743 mmHg 69%
    22:00 +20°C° 0 mm 1 mps 743 mmHg 72%
    23:00 +20°C° 0 mm 1 mps 743 mmHg 73%
    Show more